User: anonymous   Login
Location: Table Mountain
(47.2500°N, 120.5778°W)
Time: 23:26:11
(UTC-07:00)
Language:

UKube-1 - Orbit

View from above orbital plane
View from above orbital plane
View from above satellite
View from above satellite

Ground track
Ground track

The orbit data is extracted from the following two-line orbital elements,

1 40074U 14037F   19077.39256431  .00000277  00000-0  40411-4 0  9997
2 40074  98.4222 234.1727 0004998 137.9795 222.1849 14.83985897253966
Epoch (UTC): 18 March 2019 09:25:17
Eccentricity: 0.0004998
inclination: 98.4222°
perigee height: 613 km
apogee height: 620 km
right ascension of ascending node: 234.1727°
argument of perigee: 137.9795°
revolutions per day: 14.83985897
mean anomaly at epoch: 222.1849°
orbit number at epoch: 25396

The dashed part of the orbit path shows where the satellite is in the earth's shadow,  

DLR